Regional Weather Roundup
Issued by NWS Cleveland, OH

Home | Current Version | Previous Version | Text Only | Print | Product List | Glossary On
Versions: 1 2 3 4 5 6 7 8 9 10 11 12 13 14 15 16 17 18 19 20 21 22 23 24 25 26 27 28 29 30 31 32 33 34 35 36 37 38 39 40 41 42 43 44 45 46 47 48 49 50
000
ASUS41 KCLE 202110
RWRCLE
OHIO REGIONAL WEATHER ROUNDUP
NATIONAL WEATHER SERVICE CLEVELAND, OH
500 PM EDT WED AUG 20 2014

NOTE: "FAIR" INDICATES FEW OR NO CLOUDS BELOW 12,000 FEET WITH NO
SIGNIFICANT WEATHER AND/OR OBSTRUCTIONS TO VISIBILITY.

OHZ001>008-015>018-024>027-034-035-043-044-202200-
   NORTHWEST OHIO

CITY           SKY/WX    TMP DP  RH WIND       PRES   REMARKS
DEFIANCE       SUNNY     84  64  50 VRB7      29.91S
FINDLAY        SUNNY     85  65  51 W17G24    29.90F
TOLEDO EXPRESS PTSUNNY   84  65  52 W12       29.88F
TOLEDO EXEC    MOSUNNY   85  63  47 W16G28    29.89F
LIMA           SUNNY     83  67  58 W17       29.93F
$$

OHZ009>014-019>023-028>033-038-089-202200-
   NORTHEAST OHIO

CITY           SKY/WX    TMP DP  RH WIND       PRES   REMARKS
CLE-HOPKINS    PTSUNNY   80  66  62 W15       29.91S
CLE-LAKEFRONT  MOSUNNY   78  71  79 NW5       29.88S
CUY CO. ARPT   PTSUNNY   79  70  73 NW7       29.92R
LORAIN-ELYRIA  SUNNY     84  67  56 W13       29.91R
ASHTABULA      TSTM      69  66  90 S3        29.95R FOG
AKRON-CANTON   CLOUDY    79  67  66 W8        29.93S
WOOSTER        MOSUNNY   79  70  74 SW6       29.93F
MANSFIELD      SUNNY     83  64  52 W13G23    29.94S
YOUNGSTOWN     TSTM      78  68  71 SW7       29.93S
$$

OHZ042-051>053-060>062-070>072-077>081-202200-
  SOUTHWEST OHIO

CITY           SKY/WX    TMP DP  RH WIND       PRES   REMARKS
CINC-COVINGTON TSTM      71  64  78 W5        30.01R
CINC-LUNKEN    CLOUDY    83  67  58 W13       29.98R THUNDER
HAMILTON       CLOUDY    83  69  62 VRB6      29.97F
DAYTON         PTSUNNY   86  62  44 W16       29.97S
WRIGHT-PAT AFB MOSUNNY   87  62  43 W14       29.95S
DAYTON GENERAL PTSUNNY   84  64  50 W10       29.96F
WILMINGTON     PTSUNNY   84  64  50 W14       29.97R
$$

OHZ036-037-039>041-045>050-054>059-063>069-073>076-082>088-202200-
  CENTRAL AND SOUTHEAST OHIO

CITY           SKY/WX    TMP DP  RH WIND       PRES   REMARKS
COLUMBUS       MOSUNNY   88  63  43 W9        29.92S
OSU AIRPORT    PTSUNNY   85  62  46 W15G23    29.93S
BOLTON FIELD   PTSUNNY   84  68  58 W12       29.94F
RICKENBACK AFB PTSUNNY   88  61  39 SW15G21   29.93R
NEWARK         PTSUNNY   83  68  60 W6        29.92S
MARION         SUNNY     83  63  50 W15G22    29.93S
LANCASTER      MOSUNNY   84  66  54 W8        29.94S
ZANESVILLE     MOSUNNY   83  65  54 W9        29.93F
NEW PHILLY     TSTM      77  71  82 CALM      29.94S
$$


USA.gov is the U.S. government's official web portal to all federal, state and local government web resources and services.